SCP
0 0 0 0 0 0 0 0 0 0 0 0 0 0 0 0 0 0 0 0 0 0 0 0 0 0 0 0 0 0 0 0 0 0 0 0 0 0 0 0 -0 0 0 0 0 0 0 -0 -0 0 0 -0 0 0
0 0 0 0 0 0 0 0 0 0 0 0 0 0 0 0 0 0 0 0 0 0 0 0 0 -0 -0 -0 0 0 0 0 0 0 0 0 0 0 0 0 0 -0 0 0 0 0 0 0 -0 -0 -0 -0 0 -0
0 0 0 0 0 0 0 0 0 0 0 0 0 0 0 0 0 0 0 0 0 0 0 0 0 0 0 -0 -0 0 0 0 0 0 0 0 0 0 0 0 0 0 0 0 0 0 0 -0 -0 -0 -0 -0 -0 -0
0 0 0 0 0 0 0 0 0 0 0 0 0 0 0 0 0 0 0 0 0 0 0 0 0 -0 -0 -0 -0 -0 -0 -0 0 0 0 0 0 0 0 0 0 0 0 0 0 0 0 -0 -0 -0 -0 0 -0 0
0 0 0 0 0 0 0 0 0 0 0 0 0 0 0 0 0 0 0 0 0 0 0 0 -0 0 0 -0 -0 -0 -0 0 0 0 0 0 0 0 0 0 0 0 0 0 0 -0 0 -0 -0 -0 -0 -0 -0 -0
0 0 0 0 0 0 0 0 0 0 0 0 0 0 0 0 0 0 0 0 0 0 0 0 0 0 -0 -0 -0 0 -0 0 0 0 0 0 0 0 0 0 0 0 0 -0 0 -0 -0 -0 -0 -0 -0 -0 0 0
0 0 0 0 0 0 0 0 0 0 0 0 0 0 0 0 0 0 0 0 0 0 0 0 0 0 -0 0 0 -0 -0 -0 0 -0 0 0 0 0 -0 -0 0 0 0 0 0 0 -0 -0 0 -0 -0 -0 -0 0
0 0 0 0 0 0 0 0 0 0 0 0 0 0 0 0 0 0 0 0 0 0 0 0 0 -0 -0 0 -0 -0 0 0 0 0 0 0 0 -0 -0 0 0 0 0 0 0 -0 -0 -0 -0 0 -0 0 0 -0
0 0 0 0 0 0 0 0 0 0 0 0 0 -0 0 0 0 0 0 0 0 0 0 -0 0 -0 0 0 0 -0 -0 0 0 0 0 -0 0 -0 0 -0 0 0 0 -0 -0 0 0 -0 -0 0 0 -0 0 -0
0 0 0 0 0 0 0 0 0 0 0 0 0 0 0 0 0 0 0 0 0 0 0 0 0 0 0 0 0 0 -0 0 0 0 0 0 0 -0 -0 0 -0 0 0 0 0 0 0 0 0 0 0 0 0 0
0 0 0 0 0 0 0 0 0 0 0 0 0 0 0 0 0 0 0 0 0 0 0 0 0 0 0 0 0 0 0 0 0 0 0 0 0 0 0 0 0 0 0 -0 0 0 0 -0 -0 -0 0 -0 0 -0
0 0 0 0 0 0 0 0 0 0 0 0 0 0 0 0 0 0 0 0 0 0 0 0 0 0 0 0 0 0 0 0 0 0 0 0 0 0 -0 -0 0 -0 -0 -0 -0 -0 -0 -0 -0 -0 -0 -0 0 -0
0 0 0 0 0 0 0 0 0 0 0 0 0 0 0 0 0 0 0 0 0 0 0 0 -0 0 0 -0 -0 0 0 0 0 0 0 0 0 -0 -0 -0 -0 -0 -0 -0 -0 -0 -0 -0 -0 -0 -0 -0 -0 -0
0 0 0 0 0 0 0 0 0 0 0 0 0 0 0 0 0 0 0 0 0 0 0 0 -0 0 0 0 -0 0 0 0 0 0 0 0 -0 -0 -0 -0 -0 0 0 0 -0 0 0 0 0 0 -0 -0 0 0
0 0 0 0 0 0 0 0 0 0 0 0 0 0 0 0 0 0 0 0 0 0 0 0 0 0 0 0 0 0 0 0 0 0 0 0 -0 -0 -0 -0 -0 0 0 0 0 0 0 0 0 -0 -0 -0 0 0
0 0 0 0 0 0 0 0 0 0 0 0 0 0 0 0 0 0 0 0 0 0 0 0 0 0 -0 0 0 0 0 0 0 0 0 0 -0 -0 -0 -0 -0 0 0 0 0 0 0 0 0 -0 0 0 0 0
0 0 0 -0 0 0 0 0 0 0 0 0 0 0 0 0 0 0 0 0 0 0 0 0 0 0 -0 -0 0 0 -0 -0 0 0 0 -0 -0 -0 0 0 0 0 0 0 0 0 0 0 0 0 0 0 0 0
0 0 0 0 0 0 0 0 0 0 0 0 0 0 0 0 0 0 0 0 0 0 0 0 0 0 0 -0 -0 0 0 0 0 0 0 -0 -0 -0 0 0 0 0 0 0 0 0 0 0 0 -0 -0 0 0 0
0 0 0 0 0 0 0 0 0 0 0 0 0 0 0 0 0 0 0 0 0 0 0 0 0 0 0 0 -0 0 -0 -0 -0 0 0 0 -0 0 0 0 0 0 0 0 0 0 0 0 0 0 0 0 0 0
0 0 0 0 0 0 0 0 0 0 0 0 0 0 0 0 0 0 0 0 0 0 0 0 0 0 0 -0 -0 -0 0 -0 -0 -0 0 0 0 0 0 0 0 0 0 0 0 0 0 0 0 0 0 0 0 0
0 0 0 0 0 0 0 0 0 0 0 0 0 0 -0 0 0 0 0 0 0 0 0 0 0 0 0 0 -0 -0 0 0 0 0 0 0 0 0 0 0 0 0 0 0 0 0 0 0 0 0 0 0 0 0
0 0 0 0 0 0 0 0 0 0 0 0 0 0 -0 0 0 0 0 0 0 0 0 0 0 0 0 0 -0 -0 0 0 -0 -0 -0 -0 0 0 0 0 0 0 0 0 0 0 0 0 0 0 0 0 0 0
0 0 0 0 0 0 0 0 0 -0 -0 -0 0 0 0 0 0 0 0 0 0 0 0 0 0 -0 0 -0 0 0 -0 -0 0 0 0 0 0 0 0 0 0 0 0 0 0 0 0 0 0 0 0 -0 -0 -0
0 0 0 0 0 0 -0 -0 0 -0 0 0 0 0 0 0 -0 0 0 0 0 0 0 0 0 0 0 0 0 0 -0 -0 0 0 0 0 -0 0 0 0 0 0 0 0 0 0 0 0 0 0 0 -0 -0 -0
0 0 0 -0 -0 -0 0 0 0 0 0 0 0 0 0 -0 0 0 0 0 0 0 0 0 0 0 0 0 0 0 0 0 0 0 -0 -0 0 0 0 0 0 0 0 0 0 0 0 0 0 0 0 0 -0 -0
0 0 0 0 0 0 0 0 0 0 0 0 0 -0 -0 0 0 0 0 0 0 0 0 0 0 -0 0 0 0 0 0 0 0 0 0 -0 -0 -0 0 0 0 0 0 0 0 0 0 0 0 0 0 0 0 -0
0 0 0 0 0 0 0 0 0 0 0 0 0 -0 -0 0 0 0 0 0 0 0 0 0 0 0 0 0 0 0 0 0 0 0 -0 -0 -0 -0 -0 -0 0 0 0 0 0 0 0 0 0 0 0 0 0 0
0 0 0 0 0 0 0 0 0 0 0 0 0 -0 0 0 0 0 0 0 -0 0 0 0 0 0 0 0 0 0 0 0 0 0 0 -0 -0 0 0 0 0 -0 -0 0 0 0 0 0 0 0 0 0 0 0
0 0 0 0 0 0 0 0 0 0 0 0 0 0 0 0 0 0 0 -0 -0 -0 0 0 0 0 0 0 0 0 0 0 0 0 -0 0 0 -0 -0 0 0 0 0 0 0 0 0 0 0 0 0 0 0 0
0 0 0 0 0 0 0 0 0 0 0 0 0 0 0 0 0 0 0 0 0 0 -0 -0 0 0 0 0 0 0 0 0 0 0 0 0 0 0 0 0 0 0 0 -0 -0 0 0 0 0 0 0 0 0 0
0 0 0 0 0 0 0 0 0 0 0 0 0 0 0 0 0 0 0 0 0 0 0 0 0 0 0 0 0 0 0 0 0 0 0 0 0 0 0 0 0 0 0 0 -0 -0 0 0 0 0 -0 -0 -0 0
0 0 0 0 0 0 0 0 0 0 0 0 0 0 0 0 0 0 0 0 0 0 0 0 0 0 0 0 0 0 0 0 0 0 0 0 0 0 0 0 0 0 0 0 0 0 0 0 0 0 0 -0 -0 -0
0 0 0 0 0 0 0 0 0 0 0 0 0 0 0 0 0 0 0 0 0 0 0 0 0 0 0 0 0 0 0 0 0 0 0 0 0 0 0 0 0 0 0 0 0 0 0 0 0 0 0 0 0 0
Wind_Speed_500mb
45 45 44 44 45 44 43 44 48 42 37 36 35 30 28 29 26 27 36 19 21 25 58 63 34 27 27 31 9 28 22 4 5 9 6 6 5 6 8 8 16 7 7 3 4 4 8 44 31 9 12 46 28 12
46 46 44 44 44 44 43 43 43 36 36 37 33 29 31 32 28 26 40 30 23 33 53 77 75 52 59 54 57 12 14 29 7 5 4 6 5 6 9 5 10 6 9 6 6 4 22 33 24 39 41 44 9 61
47 46 44 43 43 42 42 41 39 36 36 35 30 31 34 33 30 30 40 36 30 31 54 17 19 41 48 44 34 21 18 14 10 12 3 4 8 5 6 7 9 13 17 6 4 10 19 38 42 45 36 42 53 72
47 45 43 42 41 40 40 40 36 35 34 31 29 31 37 33 30 33 34 18 14 16 13 22 47 43 5 15 22 43 50 41 20 8 6 4 6 4 5 8 6 8 15 10 5 11 3 43 45 46 48 51 63 63
46 44 42 42 41 40 38 36 35 33 32 29 29 33 35 34 31 32 14 7 14 18 10 34 64 23 12 22 25 26 36 42 22 7 5 5 5 6 6 4 8 20 9 9 10 28 17 32 46 51 71 61 61 70
47 44 42 41 41 39 37 35 34 33 30 28 31 33 34 30 25 24 6 3 6 15 12 9 27 20 26 25 19 4 12 18 7 7 6 6 9 5 5 5 16 24 21 20 16 40 50 55 61 70 75 76 76 73
48 44 43 41 40 39 36 32 31 32 28 29 31 31 28 22 23 17 9 8 11 25 8 13 15 19 27 30 15 9 10 7 3 5 4 5 4 4 4 3 14 16 9 24 23 24 51 56 56 63 75 80 82 81
48 45 44 41 37 36 33 29 30 29 27 28 28 24 20 21 25 16 6 4 21 17 8 6 8 17 14 13 13 5 3 2 6 5 5 2 7 6 3 14 20 16 6 6 17 29 36 34 47 59 60 63 69 65
46 43 42 35 33 34 29 26 27 25 25 24 17 20 19 10 8 6 18 23 14 12 6 8 4 7 17 12 12 8 7 2 6 4 7 9 2 2 11 12 7 12 10 31 27 39 41 49 50 47 46 49 52 46
39 38 33 31 29 29 24 25 22 22 18 11 12 6 6 1 9 25 7 6 13 12 12 9 9 7 12 9 9 15 7 1 1 6 8 5 2 3 9 7 3 6 47 43 43 35 38 39 35 35 36 33 33 31
31 27 29 27 26 24 23 20 19 17 9 8 7 8 12 10 11 6 6 10 11 8 14 16 24 9 11 5 4 5 6 5 3 3 6 3 3 5 14 21 27 32 38 30 32 31 27 25 22 21 21 19 17 13
24 28 28 26 25 24 21 17 15 15 9 6 12 17 11 4 8 6 6 7 9 8 15 10 17 21 10 8 3 7 6 2 6 2 4 5 7 27 43 46 44 44 43 41 33 31 22 16 13 14 15 16 15 14
29 25 23 23 25 22 19 16 14 11 6 5 5 5 6 7 7 8 8 7 5 5 7 15 8 7 6 9 8 4 7 4 2 2 7 6 27 45 50 48 40 32 28 27 25 19 15 14 11 13 19 20 22 19
30 27 24 25 23 19 17 15 13 11 9 5 7 8 9 9 9 9 8 6 8 8 13 16 9 9 7 4 5 7 6 3 4 3 6 7 47 59 53 44 34 31 28 26 23 17 10 7 11 17 22 22 16 12
29 27 26 22 17 13 13 16 16 16 9 8 8 9 11 27 20 23 18 20 7 11 13 15 12 7 5 5 6 4 5 6 7 7 7 37 55 63 55 46 43 37 33 29 22 13 5 3 10 18 25 19 18 19
27 24 21 19 18 13 17 18 15 16 7 9 14 9 23 14 15 10 9 9 9 16 17 10 5 3 8 5 4 7 3 5 5 5 44 59 59 57 54 47 45 41 34 27 17 5 5 10 15 18 24 15 14 16
26 23 21 22 18 16 13 16 15 12 11 11 15 31 47 37 28 35 29 21 10 7 2 4 5 4 7 4 4 8 4 4 20 35 56 57 56 57 50 50 47 38 30 19 9 5 1 6 6 6 13 4 6 14
28 30 29 18 13 15 12 17 10 11 15 24 16 29 25 31 40 47 34 19 13 4 3 4 2 4 6 7 4 6 10 17 29 43 41 43 54 52 43 45 34 22 14 8 4 3 2 4 4 3 1 3 4 7
30 30 27 20 15 10 8 14 15 10 23 29 36 49 44 39 37 37 37 29 21 14 7 6 4 5 6 3 4 8 16 23 30 33 40 50 48 47 41 32 24 23 21 13 6 2 4 10 9 5 4 5 7 2
30 28 24 19 18 11 7 9 15 13 11 10 22 39 43 39 36 32 35 28 27 12 8 7 8 12 11 15 13 12 12 27 40 46 44 41 37 33 30 30 28 26 23 19 15 14 8 5 5 6 8 11 9 4
25 19 19 16 16 21 8 9 14 15 17 14 22 32 19 23 27 26 29 28 28 14 9 25 27 26 27 23 20 13 20 31 47 51 51 46 43 32 26 29 28 30 28 24 18 16 10 7 4 6 4 7 8 7
20 20 15 15 11 9 14 18 15 16 13 18 31 28 14 10 15 19 19 17 11 27 36 38 34 26 22 19 20 22 32 29 29 35 38 39 34 34 32 25 34 30 28 22 20 15 9 3 4 4 5 8 5 4
23 20 12 11 10 9 12 15 11 10 5 7 2 5 6 4 8 9 4 9 13 22 24 27 28 24 21 19 19 30 33 33 35 35 37 31 28 33 27 25 30 35 28 23 15 7 1 2 6 5 7 8 10 13
15 11 7 10 19 9 9 11 12 9 9 7 5 7 9 12 7 5 5 9 10 9 11 16 15 19 21 22 41 29 29 38 43 32 32 36 35 32 25 19 27 18 15 13 12 9 11 10 9 11 15 17 15 11
8 8 8 10 10 9 8 7 9 4 6 7 5 7 5 9 4 6 5 1 8 12 12 10 16 21 18 19 15 23 32 29 35 39 41 42 28 31 25 23 22 14 13 15 17 15 13 9 10 11 12 10 11 12
6 9 12 10 8 9 7 5 6 7 6 5 5 8 1 3 6 2 2 4 10 9 12 15 28 27 16 18 30 25 18 26 28 33 43 39 34 40 36 33 29 27 20 11 7 14 16 12 11 13 16 15 11 8
6 9 16 17 11 9 10 11 17 9 8 6 5 3 1 3 4 1 7 12 15 16 17 14 20 21 24 25 28 20 18 23 25 22 30 29 19 17 18 22 26 18 21 19 11 13 16 16 13 12 11 16 19 14
13 10 6 12 18 21 7 5 6 3 9 16 5 3 2 3 1 5 11 14 17 14 16 16 22 23 20 17 16 15 20 25 19 17 35 27 30 25 15 9 13 15 14 14 10 12 13 11 10 10 11 6 15 18
11 13 12 15 18 11 8 11 6 5 3 9 3 3 3 5 16 14 17 16 25 28 27 23 19 13 14 18 26 16 17 18 22 28 42 36 33 27 24 25 21 15 13 14 13 9 10 9 9 8 8 6 5 11
16 22 8 8 6 7 6 7 5 7 5 10 12 28 29 28 19 20 15 15 14 16 22 32 30 20 17 12 17 12 9 11 6 23 40 45 38 31 26 26 25 23 21 19 20 20 22 20 18 19 16 17 13 9
6 6 12 12 7 16 18 8 2 7 12 11 17 22 17 18 22 28 21 15 18 24 29 28 22 21 20 19 12 8 8 10 17 29 31 24 25 24 29 29 26 21 21 33 32 30 32 33 31 30 29 25 21 17
13 20 8 4 8 16 15 4 6 5 3 6 10 16 16 10 8 8 15 16 18 19 18 16 17 20 15 14 14 14 14 14 11 7 9 14 21 25 29 30 36 26 17 24 32 39 28 26 33 38 36 34 29 26
24 23 23 15 5 3 4 5 5 5 5 6 11 17 16 11 8 9 17 18 18 15 12 3 3 1 8 9 7 11 11 4 4 9 8 13 16 17 18 19 24 25 23 24 26 24 28 38 31 30 32 28 29 30
Wind_Direction_500mb
305 307 310 312 314 319 319 318 322 327 331 329 327 323 327 329 329 324 315 328 307 284 287 280 278 270 286 278 278 306 324 350 317 360 341 339 293 319 304 296 325 0 304 44 312 307 316 344 338 40 328 302 295 100
304 305 307 308 312 314 317 317 320 322 324 324 321 323 326 325 324 319 308 318 307 279 267 291 290 281 274 276 268 263 261 297 283 322 344 306 307 310 302 298 333 25 343 348 25 358 307 327 316 312 310 275 141 115
301 300 301 304 307 310 313 315 318 319 318 318 317 320 323 325 322 320 310 321 321 295 309 292 290 325 307 293 275 248 278 237 221 221 273 278 282 319 315 349 308 348 6 12 298 358 330 359 3 6 10 123 129 131
295 295 296 299 302 306 308 312 315 315 313 312 313 317 318 319 317 316 311 329 281 280 293 285 315 327 6 315 285 256 270 257 268 189 207 265 270 280 314 322 323 312 302 341 303 340 296 21 22 32 60 112 124 125
288 288 291 294 297 300 303 309 312 315 313 308 311 316 317 316 317 320 325 308 285 253 289 295 316 352 352 317 302 291 255 254 233 159 197 237 266 278 301 356 348 342 338 40 45 23 48 43 45 62 62 73 103 115
281 282 284 288 292 295 298 301 307 312 308 306 310 313 313 316 321 334 327 206 334 39 312 302 314 295 338 339 309 223 275 263 217 179 212 244 245 230 31 18 298 5 45 39 31 55 55 57 65 69 72 82 85 92
275 276 277 280 286 290 294 294 301 305 302 303 307 308 306 306 294 275 260 268 267 316 298 297 294 298 330 333 310 253 283 257 207 189 243 251 315 133 35 39 268 322 56 89 79 57 62 62 63 77 77 83 87 83
269 269 267 273 278 282 290 293 300 300 300 303 305 301 297 292 290 295 337 333 233 260 250 283 278 301 331 327 325 283 254 240 218 261 287 323 108 91 77 258 272 269 262 72 86 88 92 85 77 84 89 89 88 88
265 262 260 260 267 276 282 287 294 296 302 301 293 300 288 264 248 338 313 301 260 239 253 222 261 276 323 331 301 279 238 230 210 224 225 164 124 178 193 235 289 162 143 140 101 107 97 91 93 96 97 96 96 95
257 249 251 244 259 272 277 285 289 296 301 272 294 238 258 249 296 319 287 215 209 216 223 250 261 271 307 328 307 336 281 22 250 252 130 77 21 3 214 207 323 184 142 141 120 104 99 92 91 88 89 94 97 98
242 235 230 243 254 265 272 275 287 294 271 242 219 237 260 278 282 243 250 210 183 228 219 230 226 238 269 231 276 292 316 255 240 262 119 148 157 250 111 137 135 142 147 127 118 112 106 103 97 89 79 70 69 75
212 221 229 241 250 261 255 261 265 265 274 245 279 290 302 225 220 239 226 215 197 234 191 205 239 223 239 231 240 250 262 179 244 196 77 152 190 162 128 125 122 123 123 119 121 116 109 94 72 62 54 37 21 6
205 215 230 242 251 243 248 253 249 248 256 172 240 254 229 227 226 215 221 241 218 148 223 230 265 217 205 231 246 250 257 242 201 71 174 205 144 141 139 131 126 120 115 115 113 109 107 103 76 35 10 359 350 350
203 217 233 246 237 237 240 240 222 200 182 209 225 239 199 208 241 200 213 225 275 234 328 327 291 209 200 192 220 258 244 256 162 171 210 159 143 144 146 139 131 126 124 124 130 131 115 53 31 9 3 359 1 3
206 223 230 222 219 219 204 189 186 183 183 226 228 238 229 233 265 301 283 283 256 320 311 311 298 217 221 254 238 301 268 251 180 202 167 149 149 151 148 142 141 141 141 139 145 144 131 7 357 1 358 4 19 15
208 212 212 191 176 174 179 185 183 177 227 232 236 260 264 290 287 309 333 322 6 342 316 260 263 297 242 214 288 233 264 241 240 162 153 152 153 154 152 151 154 155 154 150 153 168 314 328 343 348 352 2 27 14
186 162 145 148 145 149 149 170 173 215 229 231 241 240 252 277 274 277 284 284 305 337 286 329 248 264 302 234 244 291 249 243 136 138 155 158 155 152 149 153 154 155 153 149 143 154 308 309 305 343 5 17 0 357
171 160 167 162 145 151 171 187 226 238 241 242 250 256 241 261 270 274 276 279 225 207 196 224 318 295 275 324 4 264 341 101 136 145 151 155 152 151 159 154 156 170 176 182 198 181 257 262 280 342 272 242 252 316
171 169 179 175 176 179 207 209 212 256 244 250 259 265 266 271 275 275 264 258 246 215 181 184 218 232 246 161 161 281 300 161 149 150 151 151 153 152 153 156 169 179 185 199 210 299 307 349 331 314 270 264 257 300
178 182 188 207 230 190 229 227 210 250 262 234 262 259 261 266 270 255 246 239 203 188 194 218 215 228 235 277 289 290 219 166 150 139 142 151 163 173 178 185 187 194 199 207 216 243 252 265 251 231 251 238 238 228
202 211 188 196 203 205 251 249 232 244 267 253 271 290 274 266 261 255 234 227 210 194 223 232 247 267 280 288 287 253 194 184 175 171 166 169 170 168 181 195 199 202 204 210 223 219 220 262 216 223 203 215 204 191
154 168 189 188 206 227 250 232 238 290 289 261 287 277 245 265 246 248 233 199 219 230 235 252 258 261 273 281 269 208 179 180 188 182 177 173 175 183 184 199 196 206 217 222 218 214 225 229 211 200 204 205 193 220
169 184 193 204 215 239 253 224 233 242 243 252 261 274 240 205 154 167 184 221 232 231 229 242 252 252 248 272 206 178 180 184 191 195 192 184 191 200 200 201 210 204 192 195 211 216 149 136 143 124 142 156 169 161
167 180 214 211 205 245 246 218 222 242 242 233 223 209 208 184 181 184 236 216 228 250 220 215 244 242 216 174 172 185 185 191 196 187 184 191 204 202 194 198 188 202 209 184 166 155 126 103 126 127 119 109 128 152
185 224 207 256 226 232 242 228 204 253 261 249 277 258 184 140 139 205 237 288 195 165 157 155 145 119 152 181 192 183 176 183 184 190 189 184 173 169 182 180 187 204 195 175 167 144 133 127 119 136 137 127 127 112
213 228 193 217 226 213 241 297 349 2 302 260 285 122 232 140 203 226 53 260 137 134 169 142 167 199 162 148 154 142 165 165 171 173 186 185 188 183 179 179 190 197 205 212 162 138 136 155 153 145 160 172 153 141
242 255 224 231 263 289 289 274 270 213 225 230 195 137 50 333 61 340 298 96 101 119 143 141 148 158 141 122 164 177 162 169 174 174 180 190 186 181 180 200 220 231 210 207 191 153 144 169 187 175 158 167 175 160
244 274 228 275 257 249 251 278 271 24 338 335 26 47 103 11 289 328 112 94 65 128 147 145 140 126 150 174 157 156 169 171 170 174 175 189 197 197 199 206 224 230 225 212 190 169 177 154 161 193 209 198 184 166
239 237 264 266 275 251 241 210 229 164 335 336 17 66 76 89 70 73 121 106 85 87 98 108 109 113 136 133 169 206 193 187 189 155 172 155 158 180 200 209 198 202 209 222 222 205 186 183 175 149 148 164 146 169
242 231 243 244 229 230 225 332 183 156 75 116 110 115 98 66 75 107 106 110 106 100 95 88 83 95 110 141 141 121 177 207 180 178 167 152 148 148 156 165 178 203 218 228 230 222 214 210 203 205 206 207 211 202
247 187 216 229 252 275 306 304 194 185 126 106 132 142 133 112 82 75 95 106 136 123 122 118 105 89 82 84 104 155 153 107 126 163 172 165 149 166 176 170 168 166 200 223 229 229 228 221 217 220 220 222 226 233
204 203 222 231 261 272 219 204 169 131 86 149 159 159 148 129 87 63 98 137 143 130 124 127 117 110 104 96 80 84 101 123 142 162 194 206 212 225 236 232 235 219 189 195 213 230 233 230 227 224 230 235 235 236
217 235 249 260 267 322 68 137 119 138 200 219 217 185 152 130 122 127 93 136 143 158 162 167 101 43 210 193 172 155 142 167 304 303 270 244 236 223 215 210 214 225 229 228 220 225 225 231 232 229 225 225 231 234
Wind_Speed_850mb
45 45 44 44 45 44 43 44 48 42 37 36 35 30 28 29 26 27 36 19 21 25 58 63 34 27 27 31 9 28 22 4 5 9 6 6 5 6 8 8 16 7 7 3 4 4 8 44 31 9 12 46 28 12
46 46 44 44 44 44 43 43 43 36 36 37 33 29 31 32 28 26 40 30 23 33 53 77 75 52 59 54 57 12 14 29 7 5 4 6 5 6 9 5 10 6 9 6 6 4 22 33 24 39 41 44 9 61
47 46 44 43 43 42 42 41 39 36 36 35 30 31 34 33 30 30 40 36 30 31 54 17 19 41 48 44 34 21 18 14 10 12 3 4 8 5 6 7 9 13 17 6 4 10 19 38 42 45 36 42 53 72
47 45 43 42 41 40 40 40 36 35 34 31 29 31 37 33 30 33 34 18 14 16 13 22 47 43 5 15 22 43 50 41 20 8 6 4 6 4 5 8 6 8 15 10 5 11 3 43 45 46 48 51 63 63
46 44 42 42 41 40 38 36 35 33 32 29 29 33 35 34 31 32 14 7 14 18 10 34 64 23 12 22 25 26 36 42 22 7 5 5 5 6 6 4 8 20 9 9 10 28 17 32 46 51 71 61 61 70
47 44 42 41 41 39 37 35 34 33 30 28 31 33 34 30 25 24 6 3 6 15 12 9 27 20 26 25 19 4 12 18 7 7 6 6 9 5 5 5 16 24 21 20 16 40 50 55 61 70 75 76 76 73
48 44 43 41 40 39 36 32 31 32 28 29 31 31 28 22 23 17 9 8 11 25 8 13 15 19 27 30 15 9 10 7 3 5 4 5 4 4 4 3 14 16 9 24 23 24 51 56 56 63 75 80 82 81
48 45 44 41 37 36 33 29 30 29 27 28 28 24 20 21 25 16 6 4 21 17 8 6 8 17 14 13 13 5 3 2 6 5 5 2 7 6 3 14 20 16 6 6 17 29 36 34 47 59 60 63 69 65
46 43 42 35 33 34 29 26 27 25 25 24 17 20 19 10 8 6 18 23 14 12 6 8 4 7 17 12 12 8 7 2 6 4 7 9 2 2 11 12 7 12 10 31 27 39 41 49 50 47 46 49 52 46
39 38 33 31 29 29 24 25 22 22 18 11 12 6 6 1 9 25 7 6 13 12 12 9 9 7 12 9 9 15 7 1 1 6 8 5 2 3 9 7 3 6 47 43 43 35 38 39 35 35 36 33 33 31
31 27 29 27 26 24 23 20 19 17 9 8 7 8 12 10 11 6 6 10 11 8 14 16 24 9 11 5 4 5 6 5 3 3 6 3 3 5 14 21 27 32 38 30 32 31 27 25 22 21 21 19 17 13
24 28 28 26 25 24 21 17 15 15 9 6 12 17 11 4 8 6 6 7 9 8 15 10 17 21 10 8 3 7 6 2 6 2 4 5 7 27 43 46 44 44 43 41 33 31 22 16 13 14 15 16 15 14
29 25 23 23 25 22 19 16 14 11 6 5 5 5 6 7 7 8 8 7 5 5 7 15 8 7 6 9 8 4 7 4 2 2 7 6 27 45 50 48 40 32 28 27 25 19 15 14 11 13 19 20 22 19
30 27 24 25 23 19 17 15 13 11 9 5 7 8 9 9 9 9 8 6 8 8 13 16 9 9 7 4 5 7 6 3 4 3 6 7 47 59 53 44 34 31 28 26 23 17 10 7 11 17 22 22 16 12
29 27 26 22 17 13 13 16 16 16 9 8 8 9 11 27 20 23 18 20 7 11 13 15 12 7 5 5 6 4 5 6 7 7 7 37 55 63 55 46 43 37 33 29 22 13 5 3 10 18 25 19 18 19
27 24 21 19 18 13 17 18 15 16 7 9 14 9 23 14 15 10 9 9 9 16 17 10 5 3 8 5 4 7 3 5 5 5 44 59 59 57 54 47 45 41 34 27 17 5 5 10 15 18 24 15 14 16
26 23 21 22 18 16 13 16 15 12 11 11 15 31 47 37 28 35 29 21 10 7 2 4 5 4 7 4 4 8 4 4 20 35 56 57 56 57 50 50 47 38 30 19 9 5 1 6 6 6 13 4 6 14
28 30 29 18 13 15 12 17 10 11 15 24 16 29 25 31 40 47 34 19 13 4 3 4 2 4 6 7 4 6 10 17 29 43 41 43 54 52 43 45 34 22 14 8 4 3 2 4 4 3 1 3 4 7
30 30 27 20 15 10 8 14 15 10 23 29 36 49 44 39 37 37 37 29 21 14 7 6 4 5 6 3 4 8 16 23 30 33 40 50 48 47 41 32 24 23 21 13 6 2 4 10 9 5 4 5 7 2
30 28 24 19 18 11 7 9 15 13 11 10 22 39 43 39 36 32 35 28 27 12 8 7 8 12 11 15 13 12 12 27 40 46 44 41 37 33 30 30 28 26 23 19 15 14 8 5 5 6 8 11 9 4
25 19 19 16 16 21 8 9 14 15 17 14 22 32 19 23 27 26 29 28 28 14 9 25 27 26 27 23 20 13 20 31 47 51 51 46 43 32 26 29 28 30 28 24 18 16 10 7 4 6 4 7 8 7
20 20 15 15 11 9 14 18 15 16 13 18 31 28 14 10 15 19 19 17 11 27 36 38 34 26 22 19 20 22 32 29 29 35 38 39 34 34 32 25 34 30 28 22 20 15 9 3 4 4 5 8 5 4
23 20 12 11 10 9 12 15 11 10 5 7 2 5 6 4 8 9 4 9 13 22 24 27 28 24 21 19 19 30 33 33 35 35 37 31 28 33 27 25 30 35 28 23 15 7 1 2 6 5 7 8 10 13
15 11 7 10 19 9 9 11 12 9 9 7 5 7 9 12 7 5 5 9 10 9 11 16 15 19 21 22 41 29 29 38 43 32 32 36 35 32 25 19 27 18 15 13 12 9 11 10 9 11 15 17 15 11
8 8 8 10 10 9 8 7 9 4 6 7 5 7 5 9 4 6 5 1 8 12 12 10 16 21 18 19 15 23 32 29 35 39 41 42 28 31 25 23 22 14 13 15 17 15 13 9 10 11 12 10 11 12
6 9 12 10 8 9 7 5 6 7 6 5 5 8 1 3 6 2 2 4 10 9 12 15 28 27 16 18 30 25 18 26 28 33 43 39 34 40 36 33 29 27 20 11 7 14 16 12 11 13 16 15 11 8
6 9 16 17 11 9 10 11 17 9 8 6 5 3 1 3 4 1 7 12 15 16 17 14 20 21 24 25 28 20 18 23 25 22 30 29 19 17 18 22 26 18 21 19 11 13 16 16 13 12 11 16 19 14
13 10 6 12 18 21 7 5 6 3 9 16 5 3 2 3 1 5 11 14 17 14 16 16 22 23 20 17 16 15 20 25 19 17 35 27 30 25 15 9 13 15 14 14 10 12 13 11 10 10 11 6 15 18
11 13 12 15 18 11 8 11 6 5 3 9 3 3 3 5 16 14 17 16 25 28 27 23 19 13 14 18 26 16 17 18 22 28 42 36 33 27 24 25 21 15 13 14 13 9 10 9 9 8 8 6 5 11
16 22 8 8 6 7 6 7 5 7 5 10 12 28 29 28 19 20 15 15 14 16 22 32 30 20 17 12 17 12 9 11 6 23 40 45 38 31 26 26 25 23 21 19 20 20 22 20 18 19 16 17 13 9
6 6 12 12 7 16 18 8 2 7 12 11 17 22 17 18 22 28 21 15 18 24 29 28 22 21 20 19 12 8 8 10 17 29 31 24 25 24 29 29 26 21 21 33 32 30 32 33 31 30 29 25 21 17
13 20 8 4 8 16 15 4 6 5 3 6 10 16 16 10 8 8 15 16 18 19 18 16 17 20 15 14 14 14 14 14 11 7 9 14 21 25 29 30 36 26 17 24 32 39 28 26 33 38 36 34 29 26
24 23 23 15 5 3 4 5 5 5 5 6 11 17 16 11 8 9 17 18 18 15 12 3 3 1 8 9 7 11 11 4 4 9 8 13 16 17 18 19 24 25 23 24 26 24 28 38 31 30 32 28 29 30
Wind_Direction_850mb
305 307 310 312 314 319 319 318 322 327 331 329 327 323 327 329 329 324 315 328 307 284 287 280 278 270 286 278 278 306 324 350 317 360 341 339 293 319 304 296 325 0 304 44 312 307 316 344 338 40 328 302 295 100
304 305 307 308 312 314 317 317 320 322 324 324 321 323 326 325 324 319 308 318 307 279 267 291 290 281 274 276 268 263 261 297 283 322 344 306 307 310 302 298 333 25 343 348 25 358 307 327 316 312 310 275 141 115
301 300 301 304 307 310 313 315 318 319 318 318 317 320 323 325 322 320 310 321 321 295 309 292 290 325 307 293 275 248 278 237 221 221 273 278 282 319 315 349 308 348 6 12 298 358 330 359 3 6 10 123 129 131
295 295 296 299 302 306 308 312 315 315 313 312 313 317 318 319 317 316 311 329 281 280 293 285 315 327 6 315 285 256 270 257 268 189 207 265 270 280 314 322 323 312 302 341 303 340 296 21 22 32 60 112 124 125
288 288 291 294 297 300 303 309 312 315 313 308 311 316 317 316 317 320 325 308 285 253 289 295 316 352 352 317 302 291 255 254 233 159 197 237 266 278 301 356 348 342 338 40 45 23 48 43 45 62 62 73 103 115
281 282 284 288 292 295 298 301 307 312 308 306 310 313 313 316 321 334 327 206 334 39 312 302 314 295 338 339 309 223 275 263 217 179 212 244 245 230 31 18 298 5 45 39 31 55 55 57 65 69 72 82 85 92
275 276 277 280 286 290 294 294 301 305 302 303 307 308 306 306 294 275 260 268 267 316 298 297 294 298 330 333 310 253 283 257 207 189 243 251 315 133 35 39 268 322 56 89 79 57 62 62 63 77 77 83 87 83
269 269 267 273 278 282 290 293 300 300 300 303 305 301 297 292 290 295 337 333 233 260 250 283 278 301 331 327 325 283 254 240 218 261 287 323 108 91 77 258 272 269 262 72 86 88 92 85 77 84 89 89 88 88
265 262 260 260 267 276 282 287 294 296 302 301 293 300 288 264 248 338 313 301 260 239 253 222 261 276 323 331 301 279 238 230 210 224 225 164 124 178 193 235 289 162 143 140 101 107 97 91 93 96 97 96 96 95
257 249 251 244 259 272 277 285 289 296 301 272 294 238 258 249 296 319 287 215 209 216 223 250 261 271 307 328 307 336 281 22 250 252 130 77 21 3 214 207 323 184 142 141 120 104 99 92 91 88 89 94 97 98
242 235 230 243 254 265 272 275 287 294 271 242 219 237 260 278 282 243 250 210 183 228 219 230 226 238 269 231 276 292 316 255 240 262 119 148 157 250 111 137 135 142 147 127 118 112 106 103 97 89 79 70 69 75
212 221 229 241 250 261 255 261 265 265 274 245 279 290 302 225 220 239 226 215 197 234 191 205 239 223 239 231 240 250 262 179 244 196 77 152 190 162 128 125 122 123 123 119 121 116 109 94 72 62 54 37 21 6
205 215 230 242 251 243 248 253 249 248 256 172 240 254 229 227 226 215 221 241 218 148 223 230 265 217 205 231 246 250 257 242 201 71 174 205 144 141 139 131 126 120 115 115 113 109 107 103 76 35 10 359 350 350
203 217 233 246 237 237 240 240 222 200 182 209 225 239 199 208 241 200 213 225 275 234 328 327 291 209 200 192 220 258 244 256 162 171 210 159 143 144 146 139 131 126 124 124 130 131 115 53 31 9 3 359 1 3
206 223 230 222 219 219 204 189 186 183 183 226 228 238 229 233 265 301 283 283 256 320 311 311 298 217 221 254 238 301 268 251 180 202 167 149 149 151 148 142 141 141 141 139 145 144 131 7 357 1 358 4 19 15
208 212 212 191 176 174 179 185 183 177 227 232 236 260 264 290 287 309 333 322 6 342 316 260 263 297 242 214 288 233 264 241 240 162 153 152 153 154 152 151 154 155 154 150 153 168 314 328 343 348 352 2 27 14
186 162 145 148 145 149 149 170 173 215 229 231 241 240 252 277 274 277 284 284 305 337 286 329 248 264 302 234 244 291 249 243 136 138 155 158 155 152 149 153 154 155 153 149 143 154 308 309 305 343 5 17 0 357
171 160 167 162 145 151 171 187 226 238 241 242 250 256 241 261 270 274 276 279 225 207 196 224 318 295 275 324 4 264 341 101 136 145 151 155 152 151 159 154 156 170 176 182 198 181 257 262 280 342 272 242 252 316
171 169 179 175 176 179 207 209 212 256 244 250 259 265 266 271 275 275 264 258 246 215 181 184 218 232 246 161 161 281 300 161 149 150 151 151 153 152 153 156 169 179 185 199 210 299 307 349 331 314 270 264 257 300
178 182 188 207 230 190 229 227 210 250 262 234 262 259 261 266 270 255 246 239 203 188 194 218 215 228 235 277 289 290 219 166 150 139 142 151 163 173 178 185 187 194 199 207 216 243 252 265 251 231 251 238 238 228
202 211 188 196 203 205 251 249 232 244 267 253 271 290 274 266 261 255 234 227 210 194 223 232 247 267 280 288 287 253 194 184 175 171 166 169 170 168 181 195 199 202 204 210 223 219 220 262 216 223 203 215 204 191
154 168 189 188 206 227 250 232 238 290 289 261 287 277 245 265 246 248 233 199 219 230 235 252 258 261 273 281 269 208 179 180 188 182 177 173 175 183 184 199 196 206 217 222 218 214 225 229 211 200 204 205 193 220
169 184 193 204 215 239 253 224 233 242 243 252 261 274 240 205 154 167 184 221 232 231 229 242 252 252 248 272 206 178 180 184 191 195 192 184 191 200 200 201 210 204 192 195 211 216 149 136 143 124 142 156 169 161
167 180 214 211 205 245 246 218 222 242 242 233 223 209 208 184 181 184 236 216 228 250 220 215 244 242 216 174 172 185 185 191 196 187 184 191 204 202 194 198 188 202 209 184 166 155 126 103 126 127 119 109 128 152
185 224 207 256 226 232 242 228 204 253 261 249 277 258 184 140 139 205 237 288 195 165 157 155 145 119 152 181 192 183 176 183 184 190 189 184 173 169 182 180 187 204 195 175 167 144 133 127 119 136 137 127 127 112
213 228 193 217 226 213 241 297 349 2 302 260 285 122 232 140 203 226 53 260 137 134 169 142 167 199 162 148 154 142 165 165 171 173 186 185 188 183 179 179 190 197 205 212 162 138 136 155 153 145 160 172 153 141
242 255 224 231 263 289 289 274 270 213 225 230 195 137 50 333 61 340 298 96 101 119 143 141 148 158 141 122 164 177 162 169 174 174 180 190 186 181 180 200 220 231 210 207 191 153 144 169 187 175 158 167 175 160
244 274 228 275 257 249 251 278 271 24 338 335 26 47 103 11 289 328 112 94 65 128 147 145 140 126 150 174 157 156 169 171 170 174 175 189 197 197 199 206 224 230 225 212 190 169 177 154 161 193 209 198 184 166
239 237 264 266 275 251 241 210 229 164 335 336 17 66 76 89 70 73 121 106 85 87 98 108 109 113 136 133 169 206 193 187 189 155 172 155 158 180 200 209 198 202 209 222 222 205 186 183 175 149 148 164 146 169
242 231 243 244 229 230 225 332 183 156 75 116 110 115 98 66 75 107 106 110 106 100 95 88 83 95 110 141 141 121 177 207 180 178 167 152 148 148 156 165 178 203 218 228 230 222 214 210 203 205 206 207 211 202
247 187 216 229 252 275 306 304 194 185 126 106 132 142 133 112 82 75 95 106 136 123 122 118 105 89 82 84 104 155 153 107 126 163 172 165 149 166 176 170 168 166 200 223 229 229 228 221 217 220 220 222 226 233
204 203 222 231 261 272 219 204 169 131 86 149 159 159 148 129 87 63 98 137 143 130 124 127 117 110 104 96 80 84 101 123 142 162 194 206 212 225 236 232 235 219 189 195 213 230 233 230 227 224 230 235 235 236
217 235 249 260 267 322 68 137 119 138 200 219 217 185 152 130 122 127 93 136 143 158 162 167 101 43 210 193 172 155 142 167 304 303 270 244 236 223 215 210 214 225 229 228 220 225 225 231 232 229 225 225 231 234